Frederick, MD

2:10 PM EDT on August 22, 2017 (GMT -0400)
Frederick Municipal

Weather History for KFDK - January, 2013

Change the Weather History Date:

Wednesday, January 23, 2013

  Actual Average (KHGR) Record (KHGR)
Temperature  
Mean Temperature 18 °F -  
Max Temperature 26 °F 34 °F 59 °F (1999)
Min Temperature 10 °F 20 °F 4 °F (2014)
Degree Days  
Heating Degree Days 47    
Moisture  
Dew Point 4 °F    
Average Humidity 57    
Maximum Humidity 80    
Minimum Humidity 34    
Precipitation  
Precipitation 0.00 in - - ()
Sea Level Pressure  
Sea Level Pressure 30.27 in    
Wind  
Wind Speed 7 mph (NW)    
Max Wind Speed 14 mph    
Max Gust Speed 23 mph    
Visibility 10 miles    
Events Snow    
Averages and records for this station are not official NWS values.
T = Trace of Precipitation, MM = Missing Value Source: NWS Daily Summary

Daily Weather History Graph

Daily Weather History Graph

Search for Another Location

Airport or City:

Trip Planner

Search our weather history database for the weather conditions in past years. The results will help you decide how hot, cold, wet, or windy it might be!

Date:

Astronomy

Jan. 23, 2013 Rise Set
Actual Time 7:23 AM EST 5:19 PM EST
Civil Twilight 6:54 AM EST 5:48 PM EST
Nautical Twilight 6:22 AM EST 6:21 PM EST
Astronomical Twilight 5:50 AM EST 6:53 PM EST
Moon 2:28 PM EST (1/23) 4:33 AM EST (1/23)
Length of Visible Light 10h 53m
Length of Day
9h 55m
Waxing Gibbous, 89% of the Moon is Illuminated
Jan 23
Waxing Gibbous
Jan 26
Full
Feb 3
Last Quarter
Feb 10
New
Feb 17
First Quarter

Hourly Weather History & Observations

Time (EST) Temp. Windchill Dew Point Humidity Pressure Visibility Wind Dir Wind Speed Gust Speed Precip Events Conditions
12:10 AM 14.0 °F 2.9 °F 3.2 °F 62% 30.32 in 10.0 mi WNW 8.1 mph - N/A   Clear
12:30 AM 14.0 °F 2.0 °F 3.2 °F 62% 30.32 in 10.0 mi WNW 9.2 mph - N/A   Clear
12:50 AM 14.0 °F 5.1 °F 3.2 °F 62% 30.31 in 10.0 mi WNW 5.8 mph - N/A   Clear
1:15 AM 12.2 °F 2.9 °F 3.2 °F 67% 30.31 in 10.0 mi West 5.8 mph - N/A   Clear
1:35 AM 12.2 °F 1.7 °F 3.2 °F 67% 30.31 in 10.0 mi West 6.9 mph - N/A   Clear
1:55 AM 12.2 °F 1.7 °F 3.2 °F 67% 30.32 in 10.0 mi West 6.9 mph - N/A   Clear
2:15 AM 12.2 °F 0.7 °F 3.2 °F 67% 30.33 in 10.0 mi West 8.1 mph - N/A   Clear
2:40 AM 12.2 °F 1.7 °F 3.2 °F 67% 30.33 in 10.0 mi West 6.9 mph - N/A   Clear
3:00 AM 12.2 °F 0.7 °F 3.2 °F 67% 30.33 in 10.0 mi NW 8.1 mph - N/A   Mostly Cloudy
3:20 AM 12.2 °F 0.7 °F 1.4 °F 62% 30.33 in 10.0 mi WNW 8.1 mph - N/A   Scattered Clouds
3:40 AM 12.2 °F 2.9 °F 1.4 °F 62% 30.32 in 10.0 mi WNW 5.8 mph - N/A   Clear
4:05 AM 12.2 °F 4.3 °F 3.2 °F 67% 30.33 in 10.0 mi WNW 4.6 mph - N/A   Clear
4:25 AM 10.4 °F - 3.2 °F 73% 30.33 in 10.0 mi Calm Calm - N/A   Clear
4:45 AM 10.4 °F 2.2 °F 1.4 °F 67% 30.33 in 10.0 mi WNW 4.6 mph - N/A   Clear
5:10 AM 12.2 °F 6.1 °F 3.2 °F 67% 30.33 in 10.0 mi WNW 3.5 mph - N/A   Clear
5:30 AM 10.4 °F 2.2 °F 3.2 °F 73% 30.33 in 10.0 mi WNW 4.6 mph - N/A   Clear
5:50 AM 10.4 °F 4.0 °F 3.2 °F 73% 30.33 in 10.0 mi NW 3.5 mph - N/A   Clear
6:50 AM 10.4 °F 0.8 °F 1.4 °F 67% 30.34 in 10.0 mi WNW 5.8 mph - N/A   Clear
7:50 AM 12.2 °F -0.2 °F 1.4 °F 62% 30.36 in 10.0 mi WNW 9.2 mph - N/A   Clear
8:50 AM 15.8 °F 1.4 °F 3.2 °F 58% 30.37 in 10.0 mi WNW 13.8 mph - N/A   Clear
9:50 AM 17.6 °F 3.7 °F 1.4 °F 49% 30.38 in 10.0 mi WNW 13.8 mph 20.7 mph N/A   Clear
10:45 AM 19.4 °F 6.0 °F 1.4 °F 46% 30.37 in 10.0 mi NW 13.8 mph 17.3 mph N/A   Clear
11:50 AM 23.0 °F 11.7 °F 1.4 °F 39% 30.32 in 10.0 mi NW 11.5 mph 18.4 mph N/A   Scattered Clouds
12:50 PM 23.0 °F 10.6 °F -0.4 °F 36% 30.28 in 10.0 mi WNW 13.8 mph 23.0 mph N/A   Scattered Clouds
1:58 PM 24.8 °F 14.0 °F 19.4 °F 80% 30.25 in 10.0 mi WNW 11.5 mph 18.4 mph N/A   Mostly Cloudy
2:49 PM 26.6 °F 18.2 °F 1.4 °F 34% 30.24 in 10.0 mi WNW 8.1 mph - N/A   Mostly Cloudy
3:48 PM 24.8 °F 14.6 °F 1.4 °F 36% 30.23 in 10.0 mi WNW 10.4 mph 16.1 mph N/A   Mostly Cloudy
4:59 PM 23.0 °F 11.7 °F 1.4 °F 39% 30.22 in 10.0 mi West 11.5 mph - N/A   Overcast
5:55 PM 23.0 °F 14.7 °F 1.4 °F 39% 30.22 in 10.0 mi WNW 6.9 mph - N/A   Overcast
6:55 PM 21.2 °F 13.6 °F 1.4 °F 42% 30.21 in 10.0 mi NW 5.8 mph - N/A   Overcast
7:59 PM 21.2 °F 13.6 °F 1.4 °F 42% 30.20 in 10.0 mi NNW 5.8 mph - N/A   Overcast
8:00 PM 23.0 °F 18.4 °F 3.2 °F 43% 30.20 in 10.0 mi NNW 3.5 mph - N/A   Overcast
8:20 PM 23.0 °F - 3.2 °F 43% 30.20 in 10.0 mi Calm Calm - N/A   Overcast
8:45 PM 23.0 °F 18.4 °F 3.2 °F 43% 30.19 in 10.0 mi NNE 3.5 mph - N/A   Overcast
9:05 PM 23.0 °F - 5.0 °F 46% 30.19 in 10.0 mi Calm Calm - N/A   Overcast
9:25 PM 21.2 °F - 5.0 °F 50% 30.20 in 10.0 mi Calm Calm - N/A   Overcast
9:50 PM 21.2 °F - 5.0 °F 50% 30.20 in 10.0 mi Calm Calm - N/A   Overcast
10:10 PM 23.0 °F - 5.0 °F 46% 30.20 in 10.0 mi Calm Calm - N/A   Overcast
10:30 PM 21.2 °F 14.9 °F 6.8 °F 54% 30.20 in 10.0 mi NNE 4.6 mph - N/A   Overcast
10:50 PM 21.2 °F 14.9 °F 8.6 °F 58% 30.19 in 10.0 mi NNW 4.6 mph - N/A   Overcast
11:15 PM 21.2 °F - 10.4 °F 63% 30.18 in 7.0 mi Calm Calm - N/A Snow Light Snow
11:35 PM 21.2 °F 14.9 °F 12.2 °F 68% 30.17 in 5.0 mi NE 4.6 mph - N/A Snow Light Snow
11:55 PM 21.2 °F 16.4 °F 12.2 °F 68% 30.17 in 10.0 mi NE 3.5 mph - N/A   Overcast